This demonstration page uses our WeatherBlox Daily Observations layout. Learn more.

Left ArrowRight Arrow

44.8408, -93.29828

Hourly Observations for October 18, 2021

Temp ( °F °C ) Dew Point ( °F °C ) Humidity (%) Winds ( mph kmh ) Pressure ( in mb ) Visibility ( mi km ) Precip ( " mm )
12:53 am 00:53 Clear 51 10.6 37 2.8 59 59 SE 6 9 30.03 1017 10 16 0.00 0.00
1:53 am 01:53 Clear 50 10 37 2.8 61 61 ESE 5 7 30.03 1017 10 16 0.00 0.00
2:53 am 02:53 Clear 49 9.4 38 3.3 66 66 ESE 6 9 30.02 1017 10 16 0.00 0.00
3:53 am 03:53 Clear 47 8.3 38 3.3 71 71 E 6 9 30.01 1016 10 16 0.00 0.00
4:53 am 04:53 Clear 47 8.3 38 3.3 71 71 E 6 9 30.01 1016 10 16 0.00 0.00
5:53 am 05:53 Clear 47 8.3 39 3.9 74 74 ESE 6 9 30.01 1016 10 16 0.00 0.00
6:53 am 06:53 Clear 47 8.3 38 3.3 71 71 ESE 5 7 30.01 1016 10 16 0.00 0.00
7:53 am 07:53 Sunny 47 8.3 38 3.3 71 71 SE 6 9 30.01 1016 10 16 0.00 0.00
8:53 am 08:53 Sunny 50 10 39 3.9 66 66 SE 8 13 30.01 1016 10 16 0.00 0.00
9:53 am 09:53 Sunny 57 13.9 40 4.4 53 53 SSE 6 9 30.01 1016 10 16 0.00 0.00
10:53 am 10:53 Sunny 61 16.1 40 4.4 46 46 S 6 9 30.01 1016 10 16 0.00 0.00
11:53 am 11:53 Sunny 67 19.4 42 5.6 41 41 SSE 6 9 29.99 1016 10 16 0.00 0.00
12:53 pm 12:53 Sunny 72 22.2 42 5.6 34 34 S 6 9 29.97 1015 10 16 0.00 0.00
1:53 pm 13:53 Sunny 76 24.4 40 4.4 27 27 S 13 20 29.94 1014 10 16 0.00 0.00
2:53 pm 14:53 Sunny 78 25.6 38 3.3 24 24 S 14 22 29.92 1013 10 16 0.00 0.00
3:53 pm 15:53 Sunny 78 25.6 37 2.8 23 23 SSW 12 19 29.91 1013 10 16 0.00 0.00
4:53 pm 16:53 Sunny 77 25 37 2.8 24 24 SSW 9 15 29.91 1013 10 16 0.00 0.00
5:53 pm 17:53 Sunny 75 23.9 38 3.3 26 26 S 9 15 29.90 1012 10 16 0.00 0.00
6:53 pm 18:53 Clear 69 20.6 39 3.9 33 33 SSE 8 13 29.91 1013 10 16 0.00 0.00
7:53 pm 19:53 Mostly Clear 64 17.8 40 4.4 41 41 SSE 8 13 29.91 1013 10 16 0.00 0.00
8:53 pm 20:53 Mostly Clear 65 18.3 39 3.9 39 39 SSE 12 19 29.92 1013 10 16 0.00 0.00
9:53 pm 21:53 Mostly Clear 65 18.3 39 3.9 39 39 S 13 20 29.92 1013 10 16 0.00 0.00
10:53 pm 22:53 Mostly Clear 63 17.2 39 3.9 41 41 S 10 17 29.93 1014 10 16 0.00 0.00
11:53 pm 23:53 Mostly Clear 62 16.7 40 4.4 44 44 S 10 17 29.94 1014 10 16 0.00 0.00

Powered by AerisWeather